Date,TemperatureHighF,TemperatureAvgF,TemperatureLowF,DewpointHighF,DewpointAvgF,DewpointLowF,HumidityHigh,HumidityAvg,HumidityLow,PressureMaxIn,PressureMinIn,WindSpeedMaxMPH,WindSpeedAvgMPH,GustSpeedMaxMPH,PrecipitationSumIn
2013-3-1,47.2,39.4,35.2,36.0,30.1,-99.9,85,75,63,32.45,32.34,16,-6,20,0.01
2013-3-2,49.1,41.8,37.2,35.0,30.2,28.0,90,65,45,32.33,31.84,21,7,23,0.13
2013-3-3,38.4,24.2,25.5,34.0,-3.8,-99.9,96,56,48,32.11,31.71,35,-200,47,0.01
2013-3-4,31.0,24.4,18.3,20.0,11.6,-99.9,91,62,42,32.45,32.13,19,-5,30,0.01
2013-3-5,37.4,29.5,21.4,18.0,13.9,11.0,69,53,41,32.30,31.95,13,7,18,0.00
2013-3-6,39.1,34.1,28.9,32.0,25.4,15.0,94,72,43,31.95,31.62,17,6,21,0.01
2013-3-7,38.1,29.7,28.4,29.0,12.6,-99.9,95,64,47,32.06,31.80,19,-79,21,0.00
2013-3-8,38.9,31.1,22.8,23.0,17.4,-99.9,80,60,36,32.08,31.95,18,-4,22,0.00
2013-3-9,38.7,32.2,27.9,22.0,20.2,18.0,70,62,50,32.46,32.09,22,11,31,0.00
2013-3-10,42.9,32.6,26.6,28.0,21.3,19.0,85,65,39,32.49,32.20,27,8,29,0.00
2013-3-11,38.8,34.7,32.1,28.0,19.5,11.0,82,56,33,32.27,32.19,34,14,43,0.01
2013-3-12,46.1,37.1,30.6,33.0,25.1,15.0,75,63,47,32.27,32.08,13,4,16,0.00
2013-3-13,52.3,45.9,40.7,33.0,28.9,21.0,74,53,32,32.14,32.05,11,4,18,0.00
2013-3-14,59.6,49.7,43.2,32.0,28.4,25.0,56,45,32,32.08,31.80,22,6,26,0.00
2013-3-15,51.0,43.0,40.0,34.0,28.9,-99.9,71,60,39,31.97,31.84,29,3,38,0.00
2013-3-16,42.7,38.4,32.1,31.0,28.2,24.0,93,67,51,31.97,31.62,21,7,30,0.00
2013-3-17,32.1,26.4,21.6,30.0,19.2,12.0,95,75,53,32.09,31.57,35,10,59,0.00
2013-3-18,32.9,25.0,21.7,23.0,18.7,12.0,93,78,46,32.21,32.05,24,8,32,0.00
2013-3-19,38.8,30.2,22.5,22.0,14.5,-99.9,93,56,28,32.42,32.07,22,-4,26,0.00
2013-3-20,50.8,37.0,28.9,39.0,25.3,13.0,91,65,38,32.05,31.42,57,11,63,0.03
2013-3-21,31.1,24.3,21.3,26.0,13.9,-99.9,93,74,59,32.10,31.69,25,-34,38,0.00
2013-3-22,28.7,21.9,19.7,23.0,18.0,16.0,93,85,74,32.35,32.10,16,5,23,0.03
2013-3-23,27.6,20.1,16.9,20.0,9.8,-99.9,92,76,57,32.49,32.35,16,-47,22,0.01
2013-3-24,33.7,23.8,17.1,19.0,12.6,4.0,92,67,30,32.49,32.35,10,3,12,0.00
2013-3-25,41.4,24.9,21.4,20.0,-11.0,-99.9,63,38,40,32.36,32.04,13,-220,16,0.00
2013-3-26,48.0,38.6,31.9,28.0,21.6,-99.9,67,53,38,32.04,31.87,12,-5,16,0.00
2013-3-27,50.6,40.4,33.4,33.0,26.1,22.0,74,57,41,31.98,31.87,25,5,32,0.00
2013-3-28,50.7,41.9,36.8,37.0,32.4,-99.9,84,72,55,32.02,31.92,18,-6,23,0.00
2013-3-29,48.9,41.7,37.3,39.0,34.7,30.0,91,77,53,32.16,32.03,15,4,21,0.01
2013-3-30,53.0,43.6,38.0,34.0,27.0,-99.9,80,57,36,32.26,32.05,17,-15,22,0.00
2013-3-31,57.2,47.0,36.7,31.0,28.0,25.0,65,49,33,32.06,31.82,13,5,21,0.00